Tracking 19246 objects as of 21-Sep-2018
HD Live streaming from Space Station
objects crossing your sky now

FENGYUN 1C DEB

Track FENGYUN 1C DEB now!
10-day predictions


NORAD ID: 36180
Int'l Code: 1999-025DTD
Perigee: 687.7 km
Apogee: 1,022.6 km
Inclination: 98.4 °
Period: 101.9 minutes
Semi major axis: 7226 km
RCS: 0.0053 m2 (small)
Launch date: May 10, 1999
Source: People's Republic of China (PRC)
Launch site: Taiyaun Space Center, China (TSC)

Note: This is SATELLITE DEBRIS
aabbcc
Your satellite tracking list
Your tracking list is empty




NASA's NSSDC Master Catalog

Two Line Element Set (TLE):
1 36180U 99025DTD 18262.63779230  .00000130  00000-0  70221-4 0  9999
2 36180  98.4081  51.9154 0231676  76.4691 286.2179 14.13325955548991
Source of the keplerian elements: AFSPC